CRVULIBAV Weather Reports


Display with metric or nautical units.
time (UTC)temp
F
wind
direction
speed
MPH
gust
MPH
rain 1hr
in
rain 24hr
in
rain mn
in
humidity
%
barometer
mb
20260508022122 46 300 7.0 0.0 0.00 0.00 0.00 93
20260508012239 46 50 5.0 0.0 0.00 0.00 0.00 93
20260508002139 46 30 9.0 0.0 0.00 0.00 0.00 93
20260507232139 46 30 12.0 0.0 0.00 0.00 0.00 93
20260507222440 46 40 12.0 0.0 0.00 0.00 0.00 99
20260507212141 48 60 9.0 0.0 0.00 0.00 0.00 93
20260507202141 50 20 9.0 0.0 0.00 0.00 0.00 93
20260507192243 50 40 12.0 0.0 0.00 0.00 0.00 93
20260507182140 52 40 5.0 0.0 0.00 0.00 0.00 81
20260507172140 55 360 5.0 0.0 0.00 0.00 0.00 76
20260507162441 57 240 5.0 0.0 0.00 0.00 0.00 67
20260507152141 59 190 9.0 0.0 0.00 0.00 0.00 54
20260507142141 61 170 9.0 0.0 0.00 0.00 0.00 55
20260507132242 59 230 12.0 0.0 0.00 0.00 0.00 58
20260507122140 59 210 9.0 0.0 0.00 0.00 0.00 58
20260507112156 59 240 12.0 0.0 0.00 0.00 0.00 58
20260507102340 57 250 9.0 0.0 0.00 0.00 0.00 67
20260507092140 57 260 9.0 0.0 0.00 0.00 0.00 71
20260507082139 55 240 9.0 0.0 0.00 0.00 0.00 76
20260507072140 54 240 9.0 0.0 0.00 0.00 0.00 81
20260507062139 50 240 9.0 0.0 0.00 0.00 0.00 93
20260507052139 50 230 7.0 0.0 0.00 0.00 0.00 93
20260507042341 50 220 12.0 0.0 0.00 0.00 0.00 93
20260507032139 50 220 12.0 0.0 0.00 0.00 0.00 87